Regional Weather Roundup
Issued by NWS

Home | Current Version | Previous Version | Text Only | Print | Product List | Glossary Off
Versions: 1 2 3 4 5 6 7 8 9 10 11 12 13 14 15 16 17 18 19 20 21 22 23 24 25 26 27 28 29 30 31 32 33 34 35 36 37 38 39 40 41 42 43 44 45 46 47 48 49 50

104
ASUS44 KMEG 260910
RWRTN
TENNESSEE HOURLY STATE WEATHER ROUNDUP
NATIONAL WEATHER SERVICE MEMPHIS TN
400 AM CDT MON JUN 26 2017

TNZ002-004-019-021-049-052-054-088>092-261000-
WEST TENNESSEE

CITY           SKY/WX    TMP DP  RH WIND       PRES   REMARKS
MEMPHIS INTL   CLOUDY    67  60  78 CALM      30.17R
NWS MEMPHIS      N/A     63 N/A N/A MISG        N/A
JACKSON        CLOUDY    62  60  93 CALM      30.17S
SOMERVILLE     CLEAR     63  61  94 CALM      30.16S
COVINGTON      CLEAR     66  63  88 CALM      30.17S
UNION CITY     PTCLDY    66  61  82 NE6       30.17S
BOLIVAR        CLEAR     59  57  94 CALM      30.16F
PARIS          CLEAR     63  61  94 CALM      30.17R
HUNTINGDON     PTCLDY    64  61  88 CALM      30.16S
LEXINGTON      CLEAR     57  57 100 CALM      30.16S
SELMER         CLEAR     57  57 100 SW5       30.17S
SAVANNAH       CLEAR     55  55 100 CALM      30.17S
$$

TNZ008-025-027-028-033-062-065-066-261000-
NORTH MIDDLE TENNESSEE

CITY           SKY/WX    TMP DP  RH WIND       PRES   REMARKS
NASHVILLE      MOCLDY    61  57  87 CALM      30.16S
PORTLAND       CLEAR     61  55  82 CALM      30.16R
CLARKSVILLE    CLOUDY    64  56  75 N5        30.17R
SMYRNA         CLEAR     59  57  93 CALM      30.18R
COOKEVILLE     CLEAR     54  54 100 CALM      30.17S
GALLATIN       PTCLDY    59  57  94 CALM      30.19R
CROSSVILLE     CLEAR     52  50  93 CALM      30.21R
$$

TNZ061-075-076-078-094-096-097-261000-
SOUTH MIDDLE TENNESSEE

CITY           SKY/WX    TMP DP  RH WIND       PRES   REMARKS
FAYETTEVILLE   CLEAR     57  55  94 CALM      30.17F
TULLAHOMA      CLEAR     54  50  87 CALM      30.19S
WINCHESTER     CLEAR     52  52 100 CALM        N/A
MCMINNVILLE    CLEAR     55  55 100 CALM      30.19R
COLUMBIA       CLEAR     57  57 100 CALM      30.16S
SHELBYVILLE    CLEAR     55  55 100 E3        30.18R
$$

TNZ017-018-042-046-047-261000-
NORTHEAST TENNESSEE

CITY           SKY/WX    TMP DP  RH WIND       PRES   REMARKS
TRI CITIES     PTCLDY    52  51  97 N3        30.19R
ELIZABETHTON   PTCLDY    52  50  93 CALM      30.20R
$$

TNZ012-013-036-069-073-074-261000-
CENTRAL EAST TENNESSEE

CITY           SKY/WX    TMP DP  RH WIND       PRES   REMARKS
KNOXVILLE      CLEAR     58  52  80 CALM      30.17R
OAK RIDGE      CLEAR     55  52  89 CALM      30.19R
DOWNTOWN KNOXV   N/A     55  55 100 CALM      30.17R
GATLINBURG     CLEAR     52  50  93 CALM      30.18R
MORRISTOWN     CLEAR     57  54  88 CALM      30.17R
JACKSBORO        N/A     54  52  94 CALM      30.21S
$$

TNZ083-085-099-261000-
SOUTHEAST TENNESSEE

CITY           SKY/WX    TMP DP  RH WIND       PRES   REMARKS
CHATTANOOGA    CLEAR     58  55  90 CALM      30.18S
$$

SKY/WX REPORTED AS FAIR MEANS FEW OR NO CLOUDS BELOW
12 THOUSAND FEET.





USA.gov is the U.S. government's official web portal to all federal, state and local government web resources and services.